[[{"header":{"parameterUnit":"m.s-1","parameterCategory":1,"la1":30.2991,"la2":30.254,"lo1":-89.0895,"lo2":-89.0444,"dy":0.0017,"dx":0.0017,"nx":28,"ny":28,"refTime":"2023-08-21T21:00:00:Z","depth":0,"parameterNumber":2,"parameterNumberName":"U-component_of_WINDS"},"data":[0,0,0,0,0,0,0,0,0,0,0,0,0,0,0,0,0,0,0,0,0,0,0,0,0,0,0,0,0,0,0,0,0,0,0,0,0,0,0,0,0,0,0,0,0,0,0,0,0,0,0,0,0,0,0,0,0,0,0.042,0.0421,0,0.0542,0.0544,0.0545,0.0602,0.0602,0.0602,0.0601,0.0727,0.0731,0.0734,0,0,0,0,0,0,0,0,0,0,0,0,0,0.0232,0.0235,0.042,0.0421,0.0423,0.0542,0.0544,0.0546,0.0602,0.0602,0.0602,0.0601,0.0726,0.073,0.0734,0,0,0,0,0,0,0,0,0,0,0,0,0,0.033,0.0236,0.042,0.0465,0.0471,0.0542,0.0544,0.0546,0.0602,0.0602,0.0602,0.0601,0.0725,0.073,0.0735,0.077,0,0,0.0751,0.0753,0,0,0,0,0,0,0,0,0.0324,0.0337,0.0457,0.0462,0.0468,0.0557,0.0524,0.0621,0.0602,0.0552,0.0601,0.0601,0.0671,0.068,0.0704,0.0776,0.0781,0.0751,0.0754,0.0757,0.0758,0,0,0,0,0,0,0,0.0318,0.0332,0.0468,0.0459,0.0466,0.0479,0.0493,0.0543,0.0611,0.0556,0.0561,0.0574,0.0674,0.0698,0.0707,0.0783,0.0751,0.0756,0.0759,0.0761,0.0887,0.0887,0,0,0,0,0,0,0.0303,0.0326,0.0465,0.0472,0.0395,0.0482,0.0498,0.0528,0.061,0.0623,0.0574,0.0577,0.069,0.0701,0.0712,0.0756,0.0756,0.0761,0.0764,0.0887,0.0887,0.0888,0,0,0,0,0,0,0.0299,0.0315,0.046,0.04,0.042,0.0486,0.052,0.0531,0.0556,0.0624,0.0636,0.0587,0.069,0.0704,0.0754,0.0762,0.0764,0.0768,0.0887,0.0887,0.0887,0.0847,0,0,0,0,0,0,0.0294,0.0314,0.0328,0.04,0.0423,0.0501,0.052,0.0534,0.0565,0.0569,0.0639,0.0651,0.0691,0.0746,0.0759,0.0769,0.0772,0.0886,0.0887,0.0887,0.0848,0.0846,0.0844,0,0,0,0,0,0.0287,0.0313,0.0329,0.0345,0.0442,0.0501,0.0514,0.0559,0.0565,0.058,0.0623,0.0649,0.0758,0.0751,0.0766,0.0777,0.0886,0.0887,0.0887,0.0849,0.0846,0.0844,0,0,0,0,0,0,0.0241,0.0323,0.0342,0.0392,0.0439,0.0511,0.0531,0.0556,0.0602,0.0604,0.0658,0.0674,0.0719,0.0753,0.0743,0.0814,0.0824,0.0828,0.079,0.0788,0.0786,0.0777,0.0777,0,0,0,0,0,0.0236,0.0278,0.0347,0.0385,0.0407,0.0464,0.0492,0.0522,0.0574,0.0594,0.0641,0.0689,0.0734,0.0763,0.0809,0.0853,0.0868,0.0868,0.0866,0.0864,0.0866,0.089,0.089,0.0889,0.0889,0.0889,0,0,0.0228,0.0278,0.0301,0.0376,0.0417,0.0457,0.0481,0.0524,0.0554,0.0601,0.065,0.0686,0.0743,0.079,0.0813,0.082,0.087,0.0865,0.0863,0.0866,0.089,0.089,0.089,0.089,0.089,0.089,0,0,0.0233,0.0276,0.0311,0.035,0.041,0.0447,0.0455,0.0523,0.0548,0.0598,0.0633,0.0669,0.0747,0.0785,0.0815,0.0831,0.0856,0.0844,0.0835,0.0857,0.0857,0.0857,0.0861,0.0862,0.0846,0.0846,0.0846,0,0.0215,0.0279,0.0325,0.0365,0.0397,0.0439,0.0474,0.0509,0.0581,0.0601,0.0608,0.0704,0.0746,0.08,0.0804,0.0827,0.0837,0.0837,0.0853,0.0854,0.0855,0.0859,0.0861,0.0844,0.0845,0.0845,0.0845,0,0.0253,0.0295,0.0316,0.0383,0.0417,0.0454,0.0505,0.0533,0.056,0.0596,0.0645,0.0696,0.0752,0.0767,0.0794,0.0825,0.0827,0.0843,0.0854,0.0852,0.0857,0.086,0.0842,0.0842,0.0843,0.0844,0,0,0.0235,0.0325,0.0332,0.0362,0.0429,0.0463,0.0501,0.0554,0.0576,0.0623,0.0656,0.0718,0.0732,0.0765,0.0797,0.0816,0.0823,0.0829,0.0831,0.0825,0.0858,0.0846,0.0847,0.0839,0.084,0.084,0.0853,0,0.0249,0.0319,0.0361,0.0414,0.0453,0.0492,0.0524,0.0569,0.0603,0.064,0.0678,0.072,0.0736,0.0756,0.0777,0.0818,0.083,0.0818,0.0869,0.087,0.0853,0.085,0.0838,0.0847,0.0855,0.0856,0.0856,0,0.0276,0.032,0.0377,0.0437,0.0455,0.0484,0.0535,0.057,0.062,0.0643,0.0679,0.071,0.075,0.0757,0.0812,0.0802,0.0825,0.0847,0.0849,0.0856,0.0863,0.0856,0.0852,0.0853,0.086,0.086,0.0859,0,0.0255,0.033,0.0373,0.0397,0.0469,0.0488,0.0519,0.0569,0.0597,0.0641,0.066,0.0708,0.0734,0.077,0.0812,0.0814,0.0862,0.0873,0.0881,0.088,0.089,0.0889,0.0889,0.0905,0.0905,0.0905,0.0905,0,0.0267,0.0299,0.0364,0.0391,0.0427,0.0474,0.0509,0.0543,0.0586,0.0619,0.0655,0.0685,0.0739,0.0775,0.0808,0.0847,0.0858,0.0877,0.0886,0.0874,0.0872,0.089,0.0891,0.0906,0.0906,0.0905,0.0905,0,0.0251,0.0296,0.0345,0.0408,0.0425,0.0449,0.0503,0.0529,0.0564,0.0604,0.0616,0.0671,0.0714,0.0759,0.0819,0.0841,0.0878,0.089,0.0861,0.0866,0.0871,0.087,0.0883,0.0886,0.09,0.09,0.09,0,0.0255,0.0281,0.0347,0.0371,0.04,0.0439,0.0468,0.0514,0.0542,0.0599,0.0617,0.0663,0.0703,0.077,0.0815,0.0859,0.0872,0.0874,0.088,0.0866,0.0871,0.0869,0.0871,0.0872,0.0872,0.0871,0.0871,0,0.0258,0.0278,0.0318,0.0365,0.0398,0.0437,0.0478,0.0495,0.0549,0.0578,0.0623,0.0653,0.0712,0.0757,0.0806,0.0837,0.0862,0.0869,0.0873,0.0861,0.0843,0.0852,0.0856,0.0868,0.0869,0.0869,0.0869,0.0869,0.0252,0.0276,0.0325,0.0368,0.0402,0.0439,0.0466,0.0503,0.0541,0.0593,0.0617,0.0661,0.0707,0.0776,0.0806,0.084,0.0847,0.0854,0.0855,0.0856,0.0852,0.0837,0.0849,0.0849,0.085,0.085,0.085,0,0.0256,0.0288,0.0327,0.0382,0.0415,0.0435,0.048,0.0506,0.0544,0.0585,0.0622,0.0672,0.0715,0.0761,0.0806,0.0824,0.0837,0.0834,0.0834,0.084,0.0844,0.0835,0.0823,0.0823,0.0823,0.0823,0.0823,0.0823,0.0261,0.0302,0.0327,0.0385,0.0417,0.0461,0.0484,0.0517,0.055,0.0604,0.0639,0.0669,0.0711,0.0759,0.0798,0.0811,0.0825,0.0819,0.0835,0.0838,0.084,0.0842,0.0834,0.0822,0.0822,0.0828,0.0828,0.0828]},{"header":{"parameterUnit":"m.s-1","parameterCategory":1,"la1":30.2991,"la2":30.254,"lo1":-89.0895,"lo2":-89.0444,"dy":0.0017,"dx":0.0017,"nx":28,"ny":28,"refTime":"2023-08-21T21:00:00:Z","depth":0,"parameterNumber":3,"parameterNumberName":"V-component_of_WINDS"},"data":[0,0,0,0,0,0,0,0,0,0,0,0,0,0,0,0,0,0,0,0,0,0,0,0,0,0,0,0,0,0,0,0,0,0,0,0,0,0,0,0,0,0,0,0,0,0,0,0,0,0,0,0,0,0,0,0,0,0,3.3326,3.3326,0,3.3317,3.3317,3.3317,3.3341,3.3341,3.3342,3.3343,3.3328,3.3327,3.3326,0,0,0,0,0,0,0,0,0,0,0,0,0,3.3358,3.3357,3.3326,3.3326,3.3326,3.3317,3.3317,3.3317,3.334,3.3341,3.3342,3.3343,3.3329,3.3327,3.3326,0,0,0,0,0,0,0,0,0,0,0,0,0,3.3346,3.3357,3.3326,3.3337,3.3337,3.3317,3.3317,3.3317,3.334,3.3341,3.3342,3.3343,3.3329,3.3328,3.3326,3.3294,0,0,3.3321,3.332,0,0,0,0,0,0,0,0,3.3347,3.3345,3.3335,3.3336,3.3337,3.3331,3.3323,3.3309,3.334,3.3339,3.3343,3.3344,3.3328,3.3327,3.3322,3.3293,3.3293,3.3321,3.332,3.3319,3.3319,0,0,0,0,0,0,0,3.3347,3.3345,3.3322,3.3335,3.3336,3.334,3.334,3.3321,3.3327,3.3339,3.3341,3.334,3.3329,3.3324,3.3322,3.3292,3.3321,3.332,3.3319,3.3318,3.3235,3.3234,0,0,0,0,0,0,3.3348,3.3346,3.3323,3.3322,3.3345,3.3339,3.3338,3.3332,3.3328,3.3328,3.3339,3.3341,3.3326,3.3324,3.3322,3.3283,3.3319,3.3318,3.3317,3.3236,3.3235,3.3233,0,0,0,0,0,0,3.3348,3.3345,3.3323,3.3334,3.3332,3.3337,3.333,3.3331,3.3326,3.3327,3.3328,3.3333,3.3327,3.3324,3.3301,3.3282,3.3317,3.3316,3.3238,3.3236,3.3234,3.3205,0,0,0,0,0,0,3.3349,3.3345,3.3334,3.3334,3.3331,3.3303,3.3329,3.333,3.3324,3.3327,3.3322,3.3322,3.3328,3.3303,3.3299,3.3281,3.3314,3.3239,3.3237,3.3235,3.3207,3.3202,3.3197,0,0,0,0,0,3.335,3.3325,3.3334,3.3331,3.3318,3.3302,3.3301,3.3309,3.3323,3.3311,3.3311,3.3322,3.3286,3.33,3.3296,3.3277,3.324,3.3237,3.3235,3.3209,3.3203,3.3198,0,0,0,0,0,0,3.3321,3.3325,3.3335,3.331,3.3306,3.3306,3.3291,3.3302,3.3292,3.3295,3.3304,3.3303,3.3277,3.3275,3.3292,3.3245,3.3265,3.3261,3.3247,3.3241,3.3236,3.3236,3.3313,0,0,0,0,0,3.3312,3.3301,3.3305,3.3282,3.328,3.3286,3.328,3.3287,3.3282,3.328,3.3279,3.3273,3.326,3.3251,3.3239,3.3208,3.3206,3.3193,3.3188,3.3184,3.3179,3.3161,3.3155,3.3224,3.3224,3.3224,0,0,3.3293,3.3294,3.3286,3.3277,3.3274,3.3261,3.3285,3.3269,3.3259,3.3277,3.3255,3.3254,3.3248,3.322,3.3208,3.3217,3.316,3.318,3.3177,3.3175,3.3158,3.3151,3.3145,3.3222,3.3223,3.3223,0,0,3.325,3.3251,3.3232,3.323,3.3227,3.3231,3.3226,3.3226,3.3226,3.3205,3.3218,3.3205,3.3183,3.3178,3.3172,3.3128,3.3137,3.3124,3.3098,3.308,3.3074,3.3069,3.3051,3.3045,3.312,3.312,3.312,0,3.3226,3.3208,3.322,3.3204,3.3199,3.3217,3.3197,3.3193,3.3186,3.3181,3.3193,3.3165,3.3162,3.3133,3.3122,3.3118,3.3111,3.3123,3.3074,3.307,3.3065,3.3048,3.3042,3.3119,3.3119,3.3119,3.3119,0,3.3177,3.3164,3.3149,3.3143,3.3136,3.3118,3.3126,3.3117,3.3125,3.3127,3.3104,3.3102,3.3089,3.3083,3.309,3.3054,3.306,3.3073,3.3093,3.3057,3.3041,3.3034,3.3116,3.3117,3.3117,3.3118,0,0,3.3113,3.3116,3.311,3.3107,3.3106,3.3095,3.3077,3.3067,3.3058,3.3053,3.3036,3.3018,3.303,3.3023,3.303,3.3015,3.2978,3.3029,3.3029,3.3017,3.2936,3.2924,3.2916,3.2985,3.2984,3.2983,3.2935,0,3.307,3.3041,3.3052,3.3021,3.3008,3.3026,3.301,3.3007,3.3009,3.2997,3.2999,3.2985,3.3003,3.2999,3.2985,3.2985,3.2961,3.2989,3.2967,3.2966,3.2965,3.2909,3.2896,3.2851,3.2929,3.2928,3.2928,0,3.3015,3.3009,3.2977,3.2978,3.2973,3.2958,3.2949,3.2939,3.2935,3.2937,3.2931,3.294,3.2921,3.2943,3.2915,3.2934,3.2926,3.2925,3.2923,3.2919,3.2943,3.29,3.2837,3.283,3.2918,3.2919,3.292,0,3.2969,3.2953,3.2932,3.2929,3.293,3.2919,3.2918,3.2916,3.2909,3.2901,3.2896,3.2885,3.2878,3.2869,3.2874,3.289,3.2845,3.2868,3.2844,3.2843,3.2831,3.2831,3.2763,3.283,3.283,3.2831,3.2831,0,3.2917,3.2896,3.2911,3.2897,3.2874,3.2887,3.2863,3.2865,3.2862,3.2848,3.2863,3.2849,3.2859,3.2845,3.285,3.2825,3.2822,3.2822,3.2823,3.2819,3.2819,3.2812,3.2814,3.2829,3.2829,3.283,3.283,0,3.286,3.287,3.2847,3.2851,3.2851,3.2834,3.2836,3.2822,3.2827,3.2809,3.2805,3.2811,3.2795,3.2801,3.2784,3.2787,3.2754,3.2761,3.2756,3.2756,3.2731,3.2733,3.2654,3.2644,3.272,3.272,3.2719,0,3.2825,3.281,3.2813,3.2805,3.2804,3.2792,3.2785,3.2797,3.2789,3.2784,3.2771,3.2757,3.2747,3.2721,3.2722,3.2709,3.2713,3.2687,3.2711,3.2707,3.271,3.2709,3.2707,3.2681,3.268,3.2679,3.2679,0,3.2762,3.2767,3.2758,3.275,3.2743,3.2737,3.2732,3.2724,3.2736,3.2726,3.2712,3.2704,3.2688,3.2673,3.2661,3.2659,3.2669,3.2672,3.2665,3.2659,3.2656,3.2655,3.274,3.2673,3.2673,3.2674,3.2674,3.2674,3.2713,3.27,3.27,3.2688,3.2687,3.2682,3.267,3.2673,3.2662,3.2651,3.2659,3.2641,3.2636,3.2622,3.2618,3.2603,3.2613,3.2604,3.2601,3.2598,3.2594,3.2661,3.2602,3.2602,3.2602,3.2602,3.2602,0,3.2648,3.2649,3.2639,3.2633,3.2623,3.2638,3.2634,3.2624,3.2609,3.2605,3.2595,3.2578,3.2564,3.2565,3.2552,3.2539,3.2544,3.2535,3.2534,3.2533,3.2587,3.2593,3.2532,3.2532,3.2532,3.2532,3.2532,3.2532,3.2613,3.2591,3.2596,3.2573,3.2574,3.2558,3.2554,3.2549,3.2546,3.2527,3.2516,3.2518,3.2515,3.2502,3.2489,3.249,3.2483,3.2472,3.2473,3.2523,3.253,3.2536,3.2542,3.2471,3.2471,3.2421,3.242,3.242]}]]